Precipitable_Water
1.27 1.23 1.14 1.22 1.19 1.16 1.15 1.17 1.17 1.16 1.20 1.29 1.38 1.39 1.43 1.44 1.46 1.37 1.40 1.45 1.38 1.48 1.56 1.51 1.46 1.50 1.61 1.64 1.66 1.77 1.82 1.88 1.88 1.84 1.84 1.80 1.74 1.72 1.70 1.69 1.72 1.73 1.73 1.68 1.64 1.67 1.68 1.59 1.61 1.68 1.76 1.70 1.60 1.56 1.60 1.60 1.59 1.62 1.60 1.61 1.52 1.48 1.45 1.47 1.41 1.37 1.24 1.20 1.25 1.23 1.22 1.27 1.28 1.27 1.26 1.31 1.34 1.34 1.35 1.31 1.31 1.34 1.33 1.25 1.31
1.31 1.24 1.20 1.24 1.19 1.17 1.15 1.16 1.18 1.10 1.13 1.23 1.31 1.36 1.40 1.41 1.41 1.40 1.44 1.46 1.35 1.42 1.53 1.50 1.49 1.49 1.52 1.59 1.67 1.72 1.73 1.75 1.77 1.83 1.85 1.84 1.78 1.73 1.70 1.71 1.71 1.69 1.74 1.74 1.73 1.69 1.64 1.62 1.58 1.58 1.67 1.67 1.66 1.67 1.63 1.65 1.61 1.59 1.60 1.56 1.62 1.49 1.36 1.40 1.38 1.34 1.16 1.10 1.04 1.06 1.17 1.23 1.23 1.23 1.22 1.27 1.32 1.34 1.34 1.29 1.28 1.27 1.29 1.28 1.30
1.29 1.25 1.23 1.24 1.21 1.16 1.13 1.17 1.17 1.16 1.13 1.18 1.26 1.35 1.38 1.35 1.36 1.39 1.44 1.45 1.38 1.39 1.50 1.47 1.49 1.57 1.56 1.57 1.64 1.68 1.77 1.81 1.85 1.86 1.84 1.81 1.76 1.79 1.76 1.68 1.67 1.68 1.78 1.79 1.76 1.75 1.66 1.60 1.59 1.60 1.65 1.70 1.62 1.55 1.56 1.55 1.56 1.54 1.58 1.53 1.46 1.51 1.44 1.44 1.37 1.38 1.19 1.22 1.22 1.12 0.99 0.98 1.06 1.16 1.25 1.29 1.31 1.33 1.31 1.29 1.27 1.25 1.28 1.26 1.29
1.30 1.25 1.24 1.25 1.22 1.16 1.15 1.17 1.19 1.18 1.14 1.13 1.17 1.23 1.34 1.34 1.31 1.33 1.39 1.45 1.40 1.40 1.44 1.51 1.52 1.59 1.61 1.62 1.74 1.70 1.66 1.83 1.85 1.91 1.86 1.78 1.75 1.82 1.78 1.68 1.67 1.68 1.74 1.78 1.80 1.73 1.64 1.57 1.64 1.61 1.62 1.71 1.62 1.52 1.51 1.47 1.49 1.51 1.57 1.53 1.48 1.29 1.36 1.35 1.41 1.39 1.33 1.15 0.99 1.07 1.04 1.04 0.90 0.94 1.07 1.19 1.31 1.30 1.27 1.28 1.27 1.27 1.27 1.22 1.31
1.38 1.31 1.29 1.27 1.22 1.16 1.17 1.20 1.20 1.13 1.11 1.09 1.11 1.12 1.26 1.27 1.28 1.29 1.32 1.41 1.45 1.40 1.41 1.47 1.50 1.54 1.62 1.62 1.74 1.74 1.80 1.79 1.75 1.79 1.78 1.74 1.74 1.74 1.68 1.71 1.71 1.67 1.69 1.74 1.77 1.71 1.66 1.66 1.64 1.64 1.58 1.59 1.57 1.49 1.45 1.46 1.53 1.58 1.61 1.53 1.45 1.33 1.30 1.31 1.36 1.43 1.40 1.39 1.18 1.06 1.01 0.97 0.92 0.99 1.08 1.09 1.24 1.19 1.21 1.21 1.25 1.21 1.22 1.18 1.25
1.48 1.38 1.31 1.31 1.27 1.21 1.20 1.21 1.17 1.14 1.11 1.09 1.13 1.13 1.18 1.25 1.27 1.26 1.26 1.36 1.43 1.39 1.44 1.45 1.42 1.47 1.50 1.45 1.46 1.54 1.54 1.59 1.56 1.61 1.67 1.66 1.60 1.72 1.77 1.75 1.75 1.73 1.71 1.72 1.80 1.72 1.63 1.63 1.64 1.60 1.58 1.56 1.54 1.48 1.44 1.47 1.49 1.59 1.61 1.54 1.44 1.40 1.35 1.25 1.24 1.43 1.41 1.40 1.42 1.37 1.25 1.04 1.02 1.07 1.10 0.88 1.14 1.19 1.15 1.10 1.12 1.19 1.18 1.21 1.28
1.60 1.56 1.43 1.35 1.32 1.26 1.22 1.20 1.18 1.15 1.13 1.15 1.15 1.14 1.17 1.22 1.26 1.26 1.23 1.27 1.37 1.39 1.48 1.43 1.39 1.44 1.45 1.45 1.49 1.47 1.45 1.61 1.68 1.71 1.75 1.78 1.79 1.73 1.77 1.85 1.84 1.77 1.77 1.80 1.79 1.75 1.73 1.71 1.63 1.59 1.61 1.60 1.57 1.48 1.42 1.44 1.47 1.56 1.59 1.56 1.49 1.42 1.33 1.22 1.18 1.26 1.37 1.45 1.45 1.41 1.37 1.35 1.28 1.15 0.98 1.03 0.88 0.99 1.07 1.08 1.14 1.22 1.18 1.24 1.27
1.62 1.57 1.52 1.42 1.38 1.30 1.24 1.24 1.22 1.19 1.20 1.19 1.16 1.16 1.16 1.19 1.20 1.29 1.29 1.24 1.31 1.35 1.46 1.45 1.35 1.36 1.42 1.43 1.54 1.49 1.49 1.62 1.67 1.71 1.84 1.83 1.83 1.77 1.77 1.80 1.84 1.82 1.78 1.77 1.75 1.77 1.80 1.76 1.67 1.61 1.63 1.64 1.61 1.55 1.48 1.47 1.50 1.55 1.57 1.58 1.55 1.46 1.32 1.26 1.22 1.28 1.28 1.28 1.39 1.33 1.27 1.30 1.33 1.28 1.24 1.06 0.97 0.94 0.96 1.09 1.15 1.17 1.20 1.24 1.26
1.65 1.61 1.57 1.46 1.43 1.37 1.36 1.32 1.30 1.28 1.25 1.21 1.18 1.18 1.21 1.20 1.22 1.28 1.30 1.22 1.29 1.30 1.41 1.44 1.42 1.34 1.38 1.45 1.42 1.55 1.53 1.66 1.75 1.79 1.80 1.84 1.82 1.77 1.74 1.75 1.81 1.79 1.81 1.77 1.81 1.79 1.79 1.76 1.75 1.69 1.65 1.65 1.67 1.61 1.57 1.52 1.54 1.54 1.49 1.53 1.49 1.40 1.34 1.36 1.27 1.24 1.27 1.29 1.30 1.28 1.22 1.19 1.16 1.18 1.20 1.17 1.06 0.97 0.92 0.98 0.99 1.13 1.23 1.26 1.27
1.69 1.68 1.64 1.59 1.53 1.48 1.46 1.46 1.39 1.32 1.32 1.29 1.28 1.24 1.23 1.23 1.21 1.22 1.26 1.29 1.29 1.28 1.37 1.40 1.46 1.42 1.37 1.43 1.41 1.46 1.53 1.58 1.65 1.72 1.73 1.79 1.83 1.73 1.73 1.69 1.77 1.77 1.80 1.83 1.76 1.79 1.73 1.72 1.76 1.73 1.67 1.65 1.62 1.59 1.58 1.55 1.56 1.56 1.53 1.56 1.47 1.41 1.40 1.37 1.28 1.29 1.36 1.31 1.32 1.25 1.15 1.12 1.08 1.07 1.11 1.12 1.12 1.11 0.97 0.99 1.05 1.02 1.07 1.22 1.32
1.67 1.67 1.70 1.73 1.67 1.60 1.55 1.50 1.46 1.40 1.38 1.35 1.33 1.29 1.28 1.24 1.22 1.18 1.23 1.31 1.33 1.28 1.30 1.33 1.42 1.43 1.39 1.42 1.42 1.41 1.46 1.48 1.50 1.65 1.71 1.71 1.76 1.73 1.73 1.67 1.74 1.78 1.78 1.71 1.71 1.67 1.62 1.66 1.64 1.69 1.75 1.65 1.61 1.60 1.61 1.62 1.58 1.57 1.59 1.58 1.46 1.39 1.41 1.42 1.34 1.34 1.39 1.33 1.30 1.22 1.17 1.16 1.09 1.04 1.08 1.15 1.10 1.04 1.02 0.97 1.00 1.02 0.99 1.05 1.25
1.71 1.71 1.66 1.70 1.75 1.65 1.60 1.55 1.54 1.47 1.43 1.39 1.38 1.36 1.35 1.32 1.24 1.17 1.20 1.29 1.34 1.32 1.33 1.31 1.31 1.38 1.40 1.42 1.41 1.38 1.45 1.43 1.41 1.50 1.63 1.60 1.68 1.66 1.69 1.70 1.67 1.71 1.72 1.63 1.63 1.61 1.65 1.61 1.61 1.67 1.74 1.67 1.68 1.66 1.66 1.67 1.62 1.60 1.54 1.50 1.46 1.41 1.46 1.47 1.39 1.36 1.36 1.30 1.29 1.25 1.24 1.25 1.22 1.19 1.20 1.22 1.15 1.11 1.13 1.06 1.07 1.06 1.06 1.02 1.14
1.72 1.70 1.70 1.73 1.72 1.65 1.58 1.57 1.59 1.57 1.51 1.44 1.42 1.42 1.40 1.36 1.30 1.20 1.14 1.25 1.30 1.32 1.32 1.31 1.26 1.30 1.34 1.38 1.40 1.39 1.45 1.45 1.46 1.48 1.59 1.55 1.64 1.65 1.62 1.62 1.63 1.57 1.59 1.55 1.59 1.59 1.61 1.59 1.62 1.66 1.70 1.66 1.75 1.69 1.69 1.62 1.61 1.57 1.46 1.50 1.51 1.46 1.47 1.49 1.39 1.40 1.37 1.29 1.31 1.35 1.34 1.31 1.29 1.30 1.26 1.18 1.20 1.20 1.21 1.08 1.14 1.17 1.07 1.03 1.06
1.72 1.72 1.70 1.77 1.72 1.69 1.66 1.63 1.63 1.65 1.63 1.56 1.51 1.49 1.46 1.39 1.36 1.27 1.17 1.23 1.29 1.29 1.32 1.31 1.28 1.28 1.32 1.34 1.39 1.40 1.40 1.44 1.52 1.52 1.57 1.61 1.65 1.65 1.61 1.61 1.61 1.62 1.63 1.60 1.65 1.63 1.60 1.69 1.72 1.72 1.75 1.70 1.74 1.76 1.76 1.71 1.65 1.58 1.54 1.46 1.46 1.51 1.55 1.47 1.45 1.46 1.42 1.38 1.42 1.34 1.34 1.34 1.34 1.39 1.30 1.21 1.16 1.12 1.14 1.15 1.14 1.16 1.15 1.04 1.13
1.68 1.72 1.73 1.78 1.77 1.73 1.69 1.71 1.74 1.75 1.70 1.66 1.64 1.59 1.53 1.43 1.39 1.33 1.23 1.24 1.26 1.24 1.30 1.30 1.31 1.31 1.31 1.31 1.36 1.42 1.39 1.46 1.51 1.59 1.59 1.59 1.65 1.70 1.68 1.67 1.61 1.67 1.70 1.72 1.74 1.71 1.63 1.62 1.70 1.69 1.71 1.67 1.67 1.75 1.74 1.70 1.72 1.65 1.64 1.55 1.47 1.49 1.41 1.43 1.41 1.44 1.41 1.34 1.34 1.35 1.40 1.38 1.40 1.43 1.37 1.32 1.25 1.19 1.25 1.28 1.18 0.99 1.02 1.12 1.05
1.65 1.66 1.74 1.80 1.79 1.76 1.74 1.74 1.78 1.82 1.81 1.78 1.75 1.73 1.61 1.54 1.48 1.40 1.27 1.23 1.25 1.23 1.27 1.31 1.31 1.35 1.33 1.28 1.32 1.40 1.41 1.48 1.52 1.59 1.63 1.59 1.59 1.67 1.69 1.66 1.63 1.67 1.73 1.77 1.77 1.75 1.67 1.54 1.57 1.61 1.65 1.68 1.70 1.73 1.71 1.68 1.67 1.66 1.61 1.55 1.53 1.54 1.38 1.38 1.38 1.41 1.40 1.37 1.33 1.38 1.37 1.38 1.41 1.43 1.45 1.41 1.38 1.37 1.35 1.33 1.28 1.16 0.99 0.96 1.05
1.57 1.64 1.72 1.77 1.80 1.78 1.77 1.77 1.83 1.87 1.86 1.83 1.82 1.81 1.77 1.67 1.56 1.49 1.44 1.31 1.28 1.26 1.24 1.29 1.32 1.33 1.31 1.32 1.31 1.34 1.36 1.40 1.48 1.51 1.58 1.59 1.58 1.62 1.67 1.72 1.70 1.69 1.68 1.73 1.77 1.68 1.64 1.57 1.49 1.54 1.57 1.60 1.59 1.62 1.68 1.66 1.63 1.65 1.58 1.52 1.61 1.57 1.42 1.38 1.38 1.39 1.42 1.42 1.39 1.32 1.33 1.37 1.43 1.45 1.44 1.43 1.43 1.39 1.36 1.32 1.31 1.23 1.22 1.12 0.98
1.54 1.61 1.73 1.78 1.82 1.83 1.83 1.85 1.88 1.91 1.91 1.88 1.87 1.88 1.86 1.90 1.82 1.68 1.61 1.41 1.31 1.32 1.28 1.26 1.27 1.29 1.31 1.31 1.34 1.34 1.33 1.38 1.47 1.50 1.56 1.56 1.56 1.57 1.61 1.67 1.68 1.72 1.69 1.67 1.66 1.64 1.60 1.62 1.49 1.47 1.53 1.53 1.52 1.55 1.59 1.65 1.57 1.55 1.58 1.53 1.65 1.62 1.42 1.38 1.37 1.40 1.42 1.42 1.43 1.38 1.35 1.30 1.40 1.41 1.40 1.39 1.38 1.37 1.34 1.33 1.35 1.36 1.34 1.20 1.16
1.53 1.56 1.72 1.79 1.83 1.87 1.89 1.89 1.93 1.97 1.98 1.95 1.93 1.92 1.91 1.93 1.99 1.88 1.69 1.59 1.47 1.40 1.35 1.32 1.29 1.26 1.30 1.31 1.33 1.36 1.35 1.34 1.41 1.50 1.52 1.51 1.51 1.53 1.55 1.58 1.68 1.73 1.72 1.67 1.60 1.59 1.57 1.59 1.53 1.45 1.47 1.48 1.51 1.50 1.56 1.63 1.58 1.49 1.51 1.51 1.59 1.62 1.45 1.37 1.38 1.42 1.48 1.45 1.39 1.36 1.38 1.33 1.33 1.36 1.38 1.38 1.39 1.38 1.34 1.30 1.33 1.36 1.31 1.34 1.26
1.50 1.59 1.71 1.81 1.84 1.83 1.83 1.88 1.95 1.96 1.94 1.94 1.92 1.92 1.89 1.90 1.95 1.96 1.87 1.73 1.60 1.47 1.46 1.37 1.32 1.29 1.28 1.31 1.33 1.37 1.38 1.33 1.34 1.41 1.43 1.43 1.48 1.50 1.52 1.51 1.57 1.71 1.71 1.71 1.63 1.55 1.54 1.52 1.50 1.47 1.44 1.46 1.46 1.49 1.55 1.54 1.58 1.55 1.60 1.49 1.53 1.57 1.53 1.42 1.45 1.51 1.57 1.55 1.42 1.35 1.37 1.32 1.32 1.32 1.35 1.37 1.36 1.37 1.33 1.28 1.26 1.29 1.29 1.33 1.29
1.49 1.54 1.68 1.75 1.82 1.93 1.98 1.96 1.93 1.97 1.97 1.95 1.94 1.91 1.92 1.94 1.94 1.95 1.87 1.78 1.69 1.65 1.64 1.49 1.41 1.32 1.30 1.26 1.26 1.31 1.34 1.36 1.33 1.36 1.37 1.39 1.45 1.48 1.47 1.51 1.54 1.61 1.71 1.71 1.64 1.57 1.54 1.48 1.46 1.44 1.46 1.42 1.39 1.42 1.51 1.48 1.49 1.52 1.59 1.53 1.55 1.48 1.49 1.48 1.48 1.48 1.58 1.59 1.50 1.44 1.42 1.40 1.37 1.28 1.28 1.32 1.34 1.35 1.35 1.28 1.25 1.28 1.23 1.23 1.20
1.49 1.52 1.65 1.75 1.85 1.94 2.00 2.06 2.07 2.04 2.01 1.98 1.99 1.98 1.92 1.92 1.96 1.98 1.96 1.87 1.76 1.69 1.72 1.77 1.63 1.44 1.32 1.29 1.27 1.28 1.32 1.36 1.31 1.32 1.31 1.34 1.40 1.44 1.45 1.50 1.49 1.52 1.63 1.66 1.64 1.62 1.58 1.52 1.43 1.39 1.43 1.47 1.42 1.38 1.44 1.45 1.42 1.41 1.49 1.57 1.59 1.51 1.42 1.42 1.43 1.46 1.52 1.62 1.57 1.45 1.40 1.41 1.41 1.33 1.32 1.29 1.29 1.32 1.31 1.28 1.21 1.17 1.19 1.21 1.22
1.44 1.46 1.53 1.69 1.80 1.86 1.91 1.95 1.99 1.99 2.02 2.05 2.07 2.00 1.96 1.95 2.00 1.99 1.96 1.94 1.84 1.77 1.78 1.81 1.79 1.66 1.49 1.42 1.37 1.32 1.31 1.30 1.27 1.29 1.28 1.30 1.36 1.42 1.45 1.42 1.47 1.49 1.55 1.59 1.63 1.62 1.60 1.57 1.50 1.43 1.38 1.44 1.46 1.42 1.44 1.44 1.39 1.35 1.34 1.42 1.52 1.56 1.47 1.40 1.39 1.38 1.42 1.52 1.55 1.51 1.46 1.46 1.48 1.38 1.35 1.36 1.37 1.31 1.33 1.29 1.28 1.28 1.20 1.21 1.25
1.38 1.50 1.50 1.57 1.68 1.80 1.84 1.87 1.92 1.94 1.95 1.99 2.01 2.00 2.03 2.04 2.04 2.02 2.00 2.02 1.94 1.85 1.87 1.87 1.83 1.80 1.74 1.64 1.56 1.51 1.41 1.29 1.23 1.25 1.26 1.27 1.32 1.37 1.42 1.39 1.41 1.46 1.44 1.46 1.50 1.54 1.56 1.53 1.49 1.46 1.41 1.39 1.43 1.44 1.44 1.43 1.41 1.39 1.34 1.31 1.38 1.49 1.51 1.47 1.42 1.40 1.39 1.40 1.42 1.45 1.47 1.48 1.47 1.42 1.40 1.39 1.40 1.36 1.34 1.38 1.36 1.34 1.27 1.23 1.26
1.28 1.38 1.51 1.58 1.62 1.68 1.71 1.80 1.86 1.91 1.96 1.97 1.97 1.99 2.07 2.10 2.08 2.06 2.10 2.14 2.13 2.13 2.08 2.01 1.91 1.86 1.84 1.74 1.71 1.65 1.50 1.39 1.31 1.28 1.25 1.23 1.26 1.31 1.37 1.37 1.37 1.37 1.41 1.40 1.41 1.43 1.43 1.45 1.41 1.39 1.41 1.39 1.39 1.41 1.39 1.39 1.40 1.42 1.41 1.38 1.35 1.41 1.49 1.49 1.47 1.45 1.43 1.41 1.39 1.37 1.42 1.46 1.49 1.43 1.47 1.46 1.46 1.40 1.34 1.35 1.34 1.37 1.35 1.30 1.27
1.25 1.32 1.43 1.47 1.58 1.69 1.77 1.77 1.80 1.83 1.88 1.93 1.99 2.01 2.09 2.06 2.09 2.09 2.14 2.20 2.15 2.12 2.09 1.97 2.01 1.92 1.88 1.79 1.66 1.69 1.77 1.62 1.39 1.29 1.28 1.29 1.24 1.24 1.29 1.33 1.35 1.30 1.35 1.36 1.35 1.37 1.34 1.34 1.38 1.38 1.38 1.38 1.38 1.38 1.36 1.35 1.35 1.38 1.40 1.41 1.40 1.38 1.43 1.47 1.47 1.44 1.41 1.43 1.41 1.40 1.41 1.42 1.42 1.39 1.41 1.45 1.45 1.41 1.39 1.31 1.29 1.31 1.35 1.37 1.32
1.24 1.30 1.39 1.45 1.50 1.56 1.64 1.72 1.77 1.79 1.83 1.87 1.91 1.95 2.00 2.02 2.06 2.12 2.16 2.15 2.15 2.09 2.04 1.90 1.92 2.00 1.86 1.80 1.74 1.72 1.76 1.74 1.72 1.53 1.42 1.34 1.34 1.30 1.26 1.27 1.29 1.29 1.26 1.29 1.31 1.32 1.34 1.31 1.30 1.31 1.32 1.35 1.36 1.35 1.33 1.33 1.32 1.31 1.33 1.34 1.33 1.33 1.33 1.37 1.40 1.39 1.37 1.37 1.37 1.38 1.38 1.39 1.39 1.40 1.38 1.37 1.37 1.37 1.38 1.36 1.33 1.27 1.30 1.29 1.28
1.27 1.31 1.33 1.37 1.42 1.47 1.53 1.62 1.69 1.74 1.79 1.84 1.89 1.92 1.94 2.00 2.03 2.10 2.12 2.13 2.20 2.24 2.13 2.02 1.99 1.98 1.93 1.90 1.88 1.92 1.91 1.83 1.81 1.82 1.67 1.54 1.46 1.46 1.38 1.34 1.29 1.28 1.22 1.23 1.27 1.27 1.30 1.31 1.29 1.27 1.26 1.28 1.29 1.30 1.30 1.30 1.28 1.26 1.26 1.26 1.27 1.26 1.24 1.23 1.23 1.24 1.23 1.22 1.22 1.23 1.22 1.23 1.25 1.29 1.31 1.34 1.36 1.33 1.37 1.35 1.38 1.36 1.31 1.26 1.22
1.24 1.25 1.31 1.36 1.41 1.43 1.49 1.55 1.60 1.65 1.70 1.77 1.83 1.88 1.93 1.96 2.03 2.09 2.16 2.19 2.22 2.20 2.10 2.03 1.98 1.92 1.94 2.00 2.02 1.99 1.95 1.92 1.89 1.81 1.82 1.75 1.62 1.59 1.56 1.54 1.41 1.31 1.28 1.28 1.28 1.28 1.27 1.26 1.27 1.25 1.25 1.25 1.21 1.18 1.20 1.22 1.22 1.21 1.20 1.18 1.20 1.21 1.22 1.20 1.17 1.13 1.13 1.13 1.14 1.16 1.17 1.19 1.22 1.24 1.27 1.29 1.31 1.33 1.29 1.25 1.30 1.34 1.31 1.28 1.25
1.17 1.23 1.26 1.33 1.38 1.39 1.42 1.47 1.52 1.57 1.62 1.69 1.75 1.81 1.86 1.85 1.94 2.03 2.06 2.15 2.18 2.16 2.11 2.10 2.09 2.05 2.05 2.07 2.05 2.01 1.96 1.95 1.94 1.89 1.84 1.85 1.78 1.66 1.64 1.64 1.60 1.54 1.45 1.39 1.33 1.33 1.31 1.28 1.25 1.26 1.26 1.24 1.20 1.19 1.15 1.13 1.15 1.15 1.15 1.12 1.14 1.14 1.14 1.14 1.13 1.11 1.11 1.13 1.15 1.16 1.17 1.21 1.22 1.24 1.25 1.27 1.29 1.32 1.36 1.33 1.28 1.29 1.27 1.25 1.24
1.10 1.16 1.19 1.22 1.29 1.32 1.35 1.38 1.44 1.49 1.57 1.61 1.67 1.75 1.81 1.86 1.90 1.96 2.00 2.07 2.12 2.05 2.04 2.12 2.10 2.07 2.08 2.10 2.11 2.12 2.11 1.98 1.97 1.96 1.89 1.87 1.84 1.78 1.69 1.64 1.64 1.64 1.60 1.55 1.51 1.47 1.41 1.36 1.30 1.30 1.30 1.28 1.28 1.26 1.21 1.17 1.14 1.13 1.14 1.11 1.06 1.06 1.08 1.07 1.06 1.06 1.04 1.07 1.11 1.14 1.16 1.18 1.20 1.23 1.29 1.28 1.27 1.27 1.28 1.30 1.31 1.31 1.30 1.24 1.18
1.03 1.07 1.11 1.15 1.20 1.23 1.24 1.30 1.35 1.40 1.46 1.53 1.61 1.70 1.77 1.81 1.85 1.86 1.93 2.00 2.03 2.02 1.96 2.04 2.10 2.11 2.10 2.10 2.11 2.09 2.04 1.96 1.94 1.91 1.92 1.94 1.94 1.87 1.78 1.72 1.66 1.58 1.58 1.61 1.59 1.58 1.56 1.54 1.46 1.38 1.33 1.34 1.35 1.34 1.30 1.28 1.25 1.22 1.20 1.17 1.14 1.06 1.03 1.04 1.03 1.01 1.00 1.00 1.01 1.05 1.09 1.12 1.14 1.14 1.11 1.15 1.20 1.22 1.22 1.22 1.22 1.24 1.25 1.26 1.24
0.98 1.01 1.04 1.10 1.11 1.13 1.14 1.19 1.23 1.30 1.38 1.43 1.49 1.56 1.62 1.71 1.78 1.86 1.89 1.89 1.92 1.95 1.92 1.93 2.04 2.13 2.14 2.13 2.15 2.13 2.08 2.03 2.01 2.01 1.96 1.91 1.92 1.91 1.89 1.84 1.77 1.73 1.64 1.56 1.58 1.62 1.65 1.66 1.59 1.55 1.51 1.50 1.46 1.44 1.41 1.39 1.37 1.34 1.30 1.27 1.22 1.16 1.08 1.02 1.03 1.03 1.02 0.99 0.97 0.95 0.96 1.00 1.01 1.03 1.07 1.08 1.09 1.08 1.11 1.15 1.17 1.17 1.18 1.19 1.21
0.97 0.98 0.99 1.00 1.05 1.05 1.07 1.07 1.11 1.18 1.27 1.42 1.45 1.46 1.57 1.69 1.73 1.72 1.73 1.76 1.80 1.85 1.84 1.86 1.95 2.00 2.07 2.08 2.06 2.04 2.03 2.02 2.02 2.03 2.02 1.94 1.90 1.93 2.00 2.03 2.00 1.91 1.78 1.69 1.65 1.63 1.66 1.66 1.63 1.61 1.61 1.62 1.63 1.62 1.60 1.56 1.53 1.50 1.45 1.42 1.37 1.29 1.20 1.12 1.05 1.00 0.99 1.00 1.00 0.98 0.96 0.94 0.96 0.97 0.97 0.96 1.00 1.07 1.10 1.13 1.13 1.14 1.13 1.12 1.13
0.96 0.96 0.97 0.98 0.98 1.00 1.00 1.01 1.01 1.05 1.13 1.20 1.24 1.33 1.45 1.56 1.60 1.61 1.62 1.74 1.80 1.77 1.79 1.83 1.87 1.92 1.95 2.01 2.03 2.04 2.04 2.04 2.06 2.06 2.03 1.99 1.96 1.97 1.98 2.04 2.05 1.99 1.90 1.82 1.77 1.74 1.74 1.74 1.72 1.70 1.66 1.63 1.69 1.75 1.73 1.70 1.66 1.63 1.60 1.56 1.50 1.45 1.41 1.36 1.29 1.20 1.09 1.01 0.99 0.99 0.98 0.97 0.98 0.99 1.02 1.01 0.99 0.99 1.01 1.04 1.06 1.08 1.11 1.11 1.10
0.90 0.91 0.95 0.97 0.97 0.96 0.96 0.95 0.97 0.97 0.98 1.00 1.05 1.13 1.17 1.30 1.51 1.52 1.52 1.54 1.62 1.66 1.73 1.79 1.81 1.87 1.89 1.90 1.92 1.95 1.96 1.99 2.00 1.98 1.96 1.97 1.97 1.99 2.00 2.02 2.03 2.06 2.05 2.00 1.96 1.94 1.87 1.83 1.82 1.79 1.74 1.69 1.70 1.80 1.86 1.80 1.77 1.71 1.68 1.64 1.57 1.49 1.44 1.41 1.38 1.36 1.31 1.25 1.18 1.10 1.04 1.00 0.99 1.00 1.03 1.06 1.07 1.08 1.05 1.01 0.97 0.98 1.00 1.04 1.06
0.90 0.87 0.87 0.90 0.93 0.94 0.96 0.95 0.90 0.91 0.93 0.94 0.96 0.99 1.04 1.08 1.19 1.25 1.27 1.29 1.32 1.39 1.50 1.61 1.67 1.73 1.80 1.87 1.91 1.91 1.91 1.94 1.95 1.93 1.94 1.98 2.02 2.04 2.05 2.08 2.02 2.03 2.01 2.01 2.02 2.00 1.97 1.91 1.87 1.85 1.81 1.79 1.84 1.92 1.85 1.82 1.77 1.68 1.58 1.54 1.53 1.52 1.49 1.45 1.40 1.38 1.36 1.33 1.31 1.27 1.22 1.16 1.12 1.09 1.11 1.12 1.13 1.14 1.10 1.05 1.02 0.99 0.98 0.97 0.95
0.91 0.87 0.83 0.85 0.88 0.90 0.93 0.90 0.86 0.87 0.91 0.93 0.96 0.92 0.92 0.96 1.00 1.05 1.04 1.06 1.08 1.10 1.17 1.27 1.40 1.50 1.53 1.63 1.73 1.77 1.79 1.83 1.88 1.92 1.97 2.05 2.09 2.10 2.06 2.11 2.06 2.03 2.00 2.01 2.03 2.01 1.99 1.93 1.85 1.84 1.88 1.84 1.88 1.88 1.88 1.90 1.83 1.74 1.67 1.59 1.49 1.40 1.46 1.44 1.36 1.42 1.43 1.39 1.35 1.32 1.30 1.25 1.20 1.17 1.17 1.15 1.14 1.15 1.12 1.09 1.06 1.02 1.00 0.99 0.99
0.91 0.86 0.82 0.83 0.86 0.88 0.88 0.86 0.83 0.83 0.88 0.93 0.95 0.89 0.84 0.88 0.94 0.99 0.99 0.97 0.97 1.01 1.02 1.01 1.10 1.23 1.37 1.43 1.45 1.49 1.51 1.57 1.72 1.85 1.97 2.00 2.05 2.05 2.06 2.10 2.09 2.10 2.10 2.11 2.10 2.08 2.08 2.08 2.04 1.99 2.00 1.97 1.90 1.86 1.85 1.77 1.78 1.84 1.84 1.83 1.77 1.65 1.47 1.41 1.39 1.33 1.35 1.39 1.40 1.42 1.40 1.38 1.36 1.34 1.36 1.36 1.36 1.35 1.26 1.17 1.13 1.10 1.03 0.98 1.00
0.87 0.86 0.86 0.86 0.85 0.85 0.86 0.83 0.80 0.82 0.86 0.89 0.92 0.89 0.83 0.81 0.84 0.89 0.90 0.93 0.95 0.98 0.98 0.94 0.97 1.04 1.13 1.21 1.31 1.35 1.37 1.39 1.44 1.53 1.71 1.82 1.91 1.95 1.98 2.03 2.08 2.12 2.13 2.15 2.14 2.11 2.07 2.09 2.14 2.13 2.11 2.10 2.02 1.96 1.94 1.92 1.97 2.02 2.02 2.01 1.98 1.89 1.81 1.79 1.77 1.65 1.50 1.46 1.42 1.42 1.45 1.45 1.45 1.46 1.48 1.49 1.50 1.51 1.45 1.41 1.38 1.27 1.16 1.05 1.11
0.86 0.86 0.88 0.87 0.86 0.83 0.82 0.82 0.84 0.86 0.88 0.91 0.90 0.85 0.81 0.82 0.84 0.83 0.84 0.89 0.91 0.93 0.91 0.93 0.94 1.00 1.04 1.06 1.12 1.20 1.25 1.32 1.35 1.40 1.47 1.54 1.64 1.72 1.77 1.87 1.93 1.99 2.02 2.07 2.13 2.13 2.11 2.12 2.14 2.16 2.14 2.12 2.08 2.00 1.97 1.99 2.03 2.07 2.02 1.97 1.92 1.89 1.92 1.89 1.79 1.72 1.65 1.50 1.42 1.42 1.45 1.47 1.49 1.49 1.51 1.52 1.53 1.55 1.55 1.53 1.50 1.42 1.36 1.32 1.37
0.92 0.90 0.89 0.88 0.86 0.83 0.80 0.81 0.86 0.87 0.90 0.91 0.91 0.86 0.84 0.84 0.85 0.82 0.85 0.91 0.89 0.84 0.86 0.86 0.93 0.95 1.00 0.97 1.01 1.05 1.09 1.13 1.18 1.26 1.34 1.38 1.51 1.61 1.67 1.72 1.77 1.79 1.83 1.85 1.93 2.00 2.02 2.03 2.07 2.10 2.12 2.13 2.13 2.09 2.06 2.08 2.10 2.05 1.99 2.02 1.98 1.93 1.91 1.82 1.77 1.82 1.86 1.82 1.70 1.58 1.49 1.51 1.55 1.56 1.54 1.51 1.51 1.51 1.53 1.54 1.50 1.50 1.49 1.47 1.45
0.86 0.87 0.89 0.87 0.82 0.79 0.78 0.80 0.84 0.87 0.89 0.89 0.88 0.86 0.86 0.87 0.84 0.84 0.87 0.86 0.84 0.89 0.88 0.89 0.88 0.88 0.85 0.85 0.89 0.95 0.99 1.06 1.09 1.13 1.15 1.21 1.33 1.43 1.49 1.54 1.54 1.57 1.63 1.68 1.76 1.81 1.84 1.89 1.94 1.99 2.05 2.08 2.12 2.16 2.18 2.17 2.14 2.09 2.07 2.04 2.05 2.07 2.08 2.00 1.83 1.77 1.86 1.91 1.92 1.85 1.74 1.69 1.65 1.61 1.57 1.56 1.58 1.60 1.60 1.56 1.53 1.53 1.53 1.52 1.53
0.88 0.89 0.87 0.84 0.79 0.77 0.79 0.81 0.83 0.83 0.83 0.83 0.81 0.78 0.79 0.79 0.78 0.82 0.83 0.82 0.87 0.89 0.92 0.89 0.84 0.79 0.78 0.80 0.84 0.86 0.92 0.97 1.02 1.04 1.04 1.04 1.07 1.15 1.22 1.31 1.37 1.40 1.47 1.53 1.61 1.71 1.76 1.80 1.84 1.90 1.99 2.05 2.09 2.12 2.15 2.18 2.19 2.16 2.13 2.08 2.07 2.10 2.12 2.06 1.99 1.87 1.85 1.86 1.88 1.93 1.95 1.88 1.79 1.75 1.70 1.66 1.61 1.58 1.58 1.61 1.62 1.59 1.56 1.57 1.58
0.85 0.85 0.84 0.80 0.76 0.75 0.76 0.76 0.78 0.77 0.77 0.76 0.77 0.72 0.74 0.71 0.73 0.77 0.75 0.81 0.82 0.82 0.81 0.82 0.80 0.80 0.77 0.77 0.77 0.78 0.79 0.80 0.81 0.84 0.84 0.85 0.88 0.95 0.98 1.06 1.15 1.23 1.37 1.46 1.52 1.60 1.64 1.70 1.76 1.80 1.86 1.90 1.92 2.00 2.08 2.15 2.18 2.22 2.23 2.22 2.20 2.16 2.12 2.09 2.01 2.02 2.01 1.95 1.91 1.92 1.97 1.98 1.96 1.96 1.96 1.91 1.82 1.72 1.66 1.63 1.64 1.65 1.65 1.59 1.54
0.77 0.78 0.76 0.76 0.75 0.74 0.72 0.70 0.70 0.70 0.69 0.71 0.70 0.70 0.68 0.66 0.73 0.72 0.78 0.81 0.78 0.75 0.72 0.71 0.72 0.70 0.68 0.72 0.71 0.71 0.71 0.73 0.77 0.81 0.81 0.83 0.84 0.86 0.89 0.93 0.99 1.08 1.20 1.35 1.42 1.51 1.52 1.53 1.54 1.61 1.63 1.63 1.67 1.74 1.82 1.96 2.09 2.17 2.23 2.22 2.20 2.19 2.15 2.13 2.09 2.08 2.09 2.06 2.00 1.99 1.99 1.97 1.93 1.91 1.91 1.91 1.90 1.86 1.84 1.81 1.78 1.77 1.69 1.60 1.57
0.53 0.60 0.63 0.63 0.61 0.59 0.60 0.61 0.61 0.64 0.65 0.67 0.67 0.68 0.70 0.71 0.71 0.73 0.75 0.74 0.70 0.68 0.66 0.65 0.61 0.63 0.66 0.69 0.67 0.68 0.70 0.74 0.75 0.79 0.83 0.86 0.87 0.89 0.92 0.96 1.05 1.14 1.16 1.16 1.18 1.25 1.26 1.28 1.32 1.36 1.35 1.31 1.34 1.48 1.58 1.64 1.81 1.97 2.08 2.15 2.16 2.13 2.12 2.09 2.07 2.07 2.04 2.00 1.99 1.99 1.97 1.93 1.89 1.88 1.87 1.85 1.83 1.83 1.81 1.81 1.81 1.78 1.72 1.65 1.62
0.51 0.53 0.53 0.52 0.52 0.51 0.52 0.52 0.53 0.55 0.61 0.60 0.63 0.62 0.65 0.67 0.69 0.70 0.71 0.68 0.68 0.67 0.64 0.62 0.62 0.61 0.63 0.65 0.67 0.69 0.72 0.70 0.70 0.70 0.69 0.71 0.76 0.81 0.81 0.83 0.87 0.93 0.98 1.02 1.06 1.06 1.05 1.04 1.06 1.08 1.08 1.07 1.14 1.23 1.31 1.42 1.53 1.65 1.74 1.82 1.86 1.90 1.95 1.98 1.98 2.01 2.04 2.03 2.01 2.02 2.01 1.98 1.94 1.88 1.87 1.85 1.82 1.81 1.80 1.78 1.80 1.82 1.78 1.74 1.69
0.49 0.49 0.48 0.47 0.46 0.45 0.47 0.48 0.50 0.54 0.54 0.54 0.54 0.57 0.59 0.60 0.61 0.62 0.62 0.59 0.59 0.58 0.58 0.57 0.57 0.57 0.55 0.60 0.63 0.63 0.62 0.63 0.66 0.66 0.65 0.67 0.68 0.70 0.73 0.78 0.86 0.90 0.90 0.89 0.87 0.86 0.86 0.85 0.82 0.79 0.80 0.88 0.99 1.04 1.14 1.32 1.32 1.37 1.43 1.50 1.56 1.63 1.70 1.79 1.87 1.92 1.95 1.97 1.95 1.91 1.89 1.87 1.84 1.79 1.77 1.79 1.81 1.83 1.86 1.88 1.85 1.85 1.89 1.88 1.82
0.49 0.48 0.46 0.43 0.44 0.44 0.46 0.46 0.48 0.48 0.48 0.49 0.48 0.49 0.52 0.52 0.53 0.54 0.55 0.52 0.52 0.52 0.53 0.53 0.55 0.55 0.57 0.57 0.56 0.53 0.55 0.56 0.55 0.52 0.52 0.52 0.60 0.65 0.67 0.67 0.69 0.76 0.81 0.83 0.84 0.81 0.81 0.80 0.76 0.79 0.87 0.86 0.88 0.95 1.06 1.12 1.15 1.19 1.24 1.29 1.36 1.43 1.49 1.52 1.57 1.62 1.66 1.63 1.65 1.68 1.72 1.72 1.70 1.70 1.68 1.69 1.73 1.80 1.85 1.90 1.94 1.95 1.96 1.96 1.91
0.46 0.43 0.42 0.42 0.46 0.48 0.46 0.44 0.44 0.46 0.46 0.45 0.45 0.46 0.47 0.48 0.48 0.50 0.50 0.49 0.50 0.50 0.49 0.49 0.50 0.49 0.49 0.50 0.50 0.49 0.49 0.49 0.50 0.49 0.48 0.47 0.47 0.48 0.50 0.52 0.56 0.60 0.65 0.68 0.71 0.74 0.78 0.82 0.82 0.79 0.85 0.91 0.92 0.95 0.98 0.99 1.01 1.06 1.10 1.12 1.16 1.23 1.31 1.38 1.43 1.41 1.38 1.35 1.33 1.34 1.37 1.44 1.51 1.58 1.62 1.66 1.71 1.75 1.81 1.89 1.94 2.00 2.04 2.01 1.93
Wind_Speed
16 16 15 15 14 14 14 14 15 14 15 15 14 13 13 13 13 12 12 12 12 11 10 11 11 10 10 10 9 9 9 9 8 8 9 9 9 9 10 10 10 10 10 10 10 10 10 10 10 10 9 9 9 9 9 9 9 9 9 9 9 8 8 8 7 8 8 8 7 7 7 7 8 8 8 9 10 10 10 10 10 11 10 10 10
16 16 15 15 14 14 14 14 15 15 15 15 15 14 13 13 13 12 12 12 12 11 11 11 10 10 10 9 9 9 9 9 8 8 8 8 9 9 9 10 10 10 10 10 10 10 10 9 9 9 9 9 8 9 9 8 8 8 9 9 8 8 8 8 8 8 8 8 7 7 7 7 7 8 8 9 10 10 10 11 10 10 10 10 10
16 17 16 16 15 15 14 14 14 15 15 15 15 14 13 13 13 12 12 12 12 12 11 11 10 10 10 9 9 8 8 8 8 8 8 8 9 9 9 9 10 10 10 9 9 9 9 9 9 9 8 8 8 8 8 8 8 8 8 8 8 8 8 8 8 8 8 8 8 8 7 8 8 8 9 9 10 10 10 10 10 10 10 10 10
16 17 17 16 16 15 14 14 14 15 16 15 15 15 14 14 13 13 13 13 13 12 11 11 10 10 9 9 9 8 8 8 8 8 8 8 8 8 9 9 10 10 9 9 9 9 9 9 8 8 8 8 8 8 8 8 8 8 8 8 8 8 7 8 8 8 8 8 8 7 7 8 8 8 9 10 10 10 9 10 10 10 9 10 9
16 17 18 16 16 16 14 14 14 15 16 15 15 15 14 14 14 13 13 13 13 13 12 11 11 10 9 9 9 8 8 8 8 8 8 8 8 8 9 9 9 9 9 9 9 9 9 8 8 8 8 8 8 8 8 8 8 8 8 8 8 7 7 7 7 7 7 8 8 8 8 8 8 9 9 9 9 9 9 9 9 9 9 9 8
16 16 18 17 17 17 15 15 15 15 15 15 15 15 14 14 14 13 13 13 13 13 12 11 11 11 10 10 10 9 9 9 9 8 8 8 8 8 9 9 9 9 9 9 9 9 8 8 8 8 8 8 8 8 8 8 8 7 7 8 8 7 7 7 7 6 7 7 7 7 7 8 8 8 9 8 8 9 9 9 9 8 8 9 8
18 16 18 18 18 17 16 15 15 15 15 15 15 15 15 15 14 14 13 13 13 13 12 11 12 11 11 11 11 10 10 9 9 9 8 8 8 8 8 9 9 9 9 9 9 9 8 8 8 8 8 8 8 7 8 8 7 7 7 7 7 7 7 7 7 6 7 7 6 5 5 6 7 7 8 8 8 8 8 9 9 8 8 9 9
19 17 18 19 19 18 17 16 15 15 15 15 15 15 15 16 15 14 14 13 13 13 12 12 12 12 12 11 11 10 10 9 9 9 8 8 8 8 8 8 8 9 8 8 9 9 8 8 8 8 8 8 8 7 7 7 7 7 7 7 7 7 7 7 7 7 7 6 5 5 5 5 6 6 7 8 8 8 7 8 8 8 8 8 9
20 18 18 19 19 19 18 17 16 15 15 15 15 15 15 16 15 14 14 14 13 13 13 13 12 12 12 12 11 11 10 10 9 9 9 8 8 8 8 8 8 8 8 8 8 8 8 8 8 8 8 7 7 7 7 7 7 7 7 7 6 7 7 7 7 7 6 6 5 5 6 6 6 6 7 7 7 8 7 7 8 9 8 8 8
21 20 19 19 19 20 19 18 17 16 16 15 15 16 15 15 15 15 15 14 14 14 13 13 13 13 13 12 12 11 10 10 10 9 9 9 9 8 8 8 8 8 8 8 8 8 8 8 8 8 8 7 7 7 7 7 7 7 7 6 6 7 7 7 7 6 6 6 6 6 6 6 6 7 7 7 7 7 7 6 7 8 8 8 8
21 20 20 19 19 20 19 18 18 17 16 16 15 16 16 16 15 15 15 14 14 14 14 14 13 13 13 13 12 12 11 11 10 10 10 9 9 9 8 8 8 7 7 7 8 8 8 8 8 8 7 7 7 7 7 7 7 7 6 6 6 7 7 6 6 6 5 5 6 6 6 6 6 6 6 6 7 7 7 6 6 7 7 7 7
21 20 20 20 19 20 20 19 18 18 17 17 16 16 16 16 15 15 15 15 15 15 14 14 14 13 13 13 13 12 11 11 11 11 10 10 10 9 9 8 8 7 7 7 7 8 8 8 8 8 7 7 7 7 6 7 7 6 6 6 6 7 7 6 6 6 5 5 6 6 6 6 6 5 5 6 6 6 6 6 5 6 7 6 6
21 20 21 21 20 20 21 20 19 18 19 18 16 16 16 16 16 15 15 15 15 15 15 14 14 13 13 13 13 13 12 11 12 11 11 10 10 10 9 9 8 8 8 8 7 7 7 7 7 7 7 7 7 7 6 7 7 6 7 6 6 6 6 6 6 6 6 6 6 6 6 5 5 4 4 6 6 6 6 5 5 6 6 6 6
20 21 21 21 21 20 21 20 19 18 19 19 17 17 17 17 17 16 15 15 15 16 15 15 14 14 13 14 13 13 13 12 12 12 11 11 10 10 10 9 9 8 8 8 7 7 7 7 7 7 7 7 7 7 6 6 6 6 7 6 6 6 6 6 6 6 6 6 6 5 5 4 4 3 4 5 6 6 6 5 4 5 5 6 5
20 20 21 21 21 21 21 21 19 18 18 18 17 17 17 17 17 16 16 16 16 16 16 15 15 14 14 14 14 14 13 12 12 12 12 11 11 10 10 10 9 8 8 8 8 7 7 7 7 7 7 7 7 6 6 6 6 6 6 6 6 6 6 6 6 6 6 6 6 5 4 4 4 3 3 4 6 6 6 5 4 4 4 5 5
18 19 20 21 22 22 22 22 21 19 18 18 16 16 17 17 17 17 16 16 16 16 16 16 15 15 14 14 14 14 14 13 13 13 12 12 12 11 10 10 9 9 8 8 8 8 7 7 7 7 7 7 7 7 6 6 6 6 6 6 6 5 6 6 6 6 6 6 6 5 5 4 4 3 3 3 5 6 5 5 4 4 4 4 4
17 18 20 21 22 23 23 23 22 20 19 18 17 17 17 17 17 17 17 17 16 16 17 17 16 15 15 14 14 15 15 14 14 14 13 13 12 11 11 10 10 9 9 8 8 8 8 7 7 7 7 7 7 7 6 6 6 6 6 6 6 5 5 6 6 6 6 6 6 6 5 5 5 4 3 3 3 4 5 5 4 4 5 4 4
16 17 19 20 21 21 22 22 22 21 20 19 18 18 17 18 18 18 17 17 17 17 17 17 17 16 16 15 15 15 15 15 15 14 14 13 13 12 12 11 10 10 9 9 8 8 8 8 7 7 7 7 7 7 7 6 6 6 6 6 5 5 5 6 6 6 6 6 5 5 5 6 5 5 4 3 3 3 4 5 5 5 5 5 4
14 15 17 17 19 20 20 21 21 22 21 20 19 19 19 18 18 19 18 17 17 17 17 18 18 17 16 16 15 15 16 16 16 15 15 14 14 13 13 12 11 11 10 9 9 9 9 8 8 7 7 7 7 7 7 7 6 6 6 6 6 5 5 6 6 5 5 5 5 5 5 5 5 5 5 4 4 4 4 5 6 6 6 5 5
12 14 15 16 17 19 20 20 21 22 22 21 20 20 20 19 19 20 19 18 18 18 17 18 18 18 17 17 16 16 16 16 16 16 16 15 15 14 14 13 12 12 11 10 10 9 9 9 8 8 8 8 7 7 7 7 7 6 6 6 6 6 6 6 5 5 5 5 5 5 5 5 5 6 6 5 5 5 5 5 6 6 6 6 6
11 12 13 15 16 17 18 19 20 21 21 21 21 21 21 20 20 21 21 19 19 19 19 18 19 19 18 18 17 17 16 17 17 17 16 16 16 15 15 14 13 13 12 11 11 10 10 10 9 9 8 8 8 7 7 7 7 7 7 6 6 6 6 6 5 5 5 4 4 5 5 5 5 6 6 6 6 6 5 6 7 7 7 8 7
9 10 12 14 15 16 16 17 18 19 20 20 21 21 22 21 20 21 22 21 20 20 20 19 19 19 19 19 18 18 18 17 17 17 17 17 17 16 16 15 15 14 13 13 12 12 11 11 10 10 9 9 8 8 8 8 7 7 7 7 6 6 6 6 6 6 5 5 4 5 5 5 5 5 6 6 6 6 6 6 6 7 8 8 8
9 9 11 13 14 14 15 16 17 18 18 19 20 20 21 21 21 21 22 22 21 21 20 20 20 20 19 19 19 19 19 19 18 18 18 18 17 17 17 16 16 15 14 14 14 13 12 12 11 11 10 10 10 9 9 8 8 8 8 8 7 7 7 7 7 6 6 5 5 5 5 5 5 5 6 6 6 7 7 6 7 7 8 8 8
11 11 11 12 12 13 14 15 15 16 17 18 18 19 20 20 20 21 22 23 22 22 21 21 20 20 19 19 19 19 19 19 19 18 18 18 18 18 18 17 17 16 16 15 15 14 14 13 12 12 12 11 11 10 10 9 9 9 9 9 8 8 7 7 7 7 6 6 6 5 5 5 5 5 6 6 6 6 7 7 7 7 8 8 9
11 11 12 13 13 13 13 13 14 15 15 17 17 18 19 19 19 20 21 22 21 21 21 20 19 19 20 19 18 18 18 19 19 18 18 19 19 19 19 19 18 18 17 17 16 15 15 14 14 13 13 12 12 12 11 11 10 10 10 9 9 9 8 8 8 8 7 7 7 6 6 6 6 6 6 6 6 6 7 7 8 7 7 7 8
11 11 12 13 13 13 13 13 13 13 13 14 15 16 16 17 18 19 20 20 20 20 20 20 19 19 19 20 19 19 19 19 19 19 18 18 18 19 19 19 19 19 19 18 17 17 16 16 15 14 14 14 13 13 13 12 12 11 11 10 10 10 9 9 9 9 8 8 8 7 7 7 7 7 7 7 7 7 7 8 8 8 8 8 8
12 11 11 12 12 13 13 13 13 13 13 13 13 13 14 14 15 17 18 19 18 18 19 19 20 20 20 20 20 20 20 20 20 20 19 18 18 19 20 20 20 19 19 19 19 18 17 17 16 16 15 15 15 14 14 14 13 13 12 12 11 11 11 11 10 10 9 9 9 9 8 8 8 8 8 8 8 8 8 8 8 9 9 9 9
12 12 12 12 12 13 13 13 13 13 13 12 13 13 12 13 13 14 15 16 17 17 17 18 19 20 20 21 21 21 21 20 20 21 21 19 18 17 19 20 21 20 20 20 20 19 19 18 17 17 17 16 16 16 16 15 15 14 14 13 13 13 12 12 12 11 11 11 10 10 10 10 9 9 9 9 9 9 9 9 9 9 9 10 10
12 12 12 12 12 13 13 13 13 13 13 13 13 13 13 13 13 13 14 15 16 16 16 16 17 18 19 20 21 22 22 21 21 21 21 20 19 18 18 18 20 21 20 20 20 20 20 19 19 18 18 17 17 17 17 17 17 16 16 15 15 14 14 13 13 13 13 12 12 12 11 11 11 11 11 10 10 10 10 10 10 10 10 11 11
13 13 13 12 12 12 12 13 13 13 13 14 14 14 13 13 13 13 13 13 15 15 14 14 15 16 17 18 19 21 22 22 22 21 21 21 20 19 18 18 18 20 21 20 20 20 21 21 20 19 19 19 18 18 18 19 18 18 17 17 17 16 16 15 15 15 14 14 14 13 13 13 13 13 13 13 13 12 12 12 12 12 12 12 12
14 14 13 13 12 12 12 12 12 12 13 14 14 14 14 13 13 13 12 12 14 14 13 13 13 14 16 16 17 18 20 21 21 21 21 21 20 19 19 18 18 19 20 20 20 20 20 21 21 21 20 20 20 19 19 20 20 20 19 19 19 18 18 17 17 17 16 16 16 15 15 15 15 15 15 15 15 15 15 15 14 14 14 14 14
14 14 14 13 13 13 12 12 12 12 12 13 13 13 13 13 13 13 12 13 13 13 13 14 15 15 15 16 16 16 17 19 20 21 21 21 21 20 20 19 19 19 19 20 20 19 19 19 20 20 21 21 20 20 20 20 21 21 21 21 20 20 20 19 19 19 18 18 17 17 17 17 17 16 16 16 16 17 17 17 17 16 16 16 16
13 14 14 13 14 13 13 13 13 12 13 13 13 12 12 13 13 13 12 12 12 13 12 13 15 15 15 16 16 16 16 17 18 20 21 22 22 22 21 20 20 19 20 20 21 21 20 19 19 19 20 20 21 21 21 21 21 21 22 22 21 21 21 21 21 21 20 20 20 20 19 19 19 19 19 18 18 18 18 19 19 19 18 18 18
13 14 14 14 14 14 14 13 13 13 13 14 14 13 13 13 12 12 12 11 11 12 12 12 13 14 15 16 16 16 17 17 18 19 20 20 21 22 22 22 21 21 20 21 21 22 22 22 21 20 20 20 20 20 21 22 22 22 22 22 22 22 23 23 23 22 22 22 22 22 22 21 21 21 21 21 20 20 20 20 20 20 20 20 20
13 13 14 14 14 14 14 14 13 13 13 13 14 13 13 14 13 12 12 11 11 11 12 13 13 14 14 15 16 16 16 17 18 19 20 20 21 21 22 22 22 22 22 21 22 22 23 23 23 23 22 22 21 20 20 21 22 22 23 23 23 24 24 24 24 24 24 24 23 23 23 23 23 23 23 23 23 22 22 22 22 22 22 22 22
14 14 14 14 14 14 14 14 14 14 14 14 14 13 12 13 13 13 12 11 10 10 11 12 13 14 14 14 15 16 16 16 17 17 19 20 20 21 21 22 23 23 23 23 22 23 24 24 24 24 24 24 24 23 22 21 21 22 22 23 24 25 25 25 25 25 25 24 24 24 24 24 24 24 24 24 24 24 24 24 24 24 24 24 23
15 14 14 14 14 14 14 14 14 14 15 14 14 14 13 13 13 13 13 12 11 10 11 11 12 13 14 14 14 15 15 16 17 16 17 18 19 19 20 22 23 23 24 24 24 23 24 24 25 25 25 25 25 25 24 24 23 23 23 23 24 24 25 26 26 26 26 26 26 26 25 25 25 25 25 25 25 25 25 25 25 25 25 25 25
15 15 15 15 15 14 14 15 14 14 15 15 15 15 15 13 13 14 14 13 12 11 12 12 12 13 13 14 14 14 15 16 17 17 17 18 18 18 19 20 21 23 24 24 24 24 24 25 25 25 25 25 25 26 26 26 26 26 26 26 26 26 26 27 27 27 28 28 28 28 28 27 27 27 27 27 27 26 26 26 27 26 26 27 26
16 17 17 16 16 15 14 15 15 15 15 16 16 16 16 15 14 15 14 14 14 13 13 14 14 14 14 15 15 15 15 16 17 18 19 19 19 19 19 19 20 21 23 24 25 25 25 25 25 25 25 25 26 26 26 26 27 27 27 28 28 29 29 29 29 29 29 29 29 30 30 30 29 29 29 29 29 29 28 28 28 28 28 28 28
17 18 18 17 17 16 15 15 16 16 16 16 17 17 17 17 16 16 16 15 15 15 15 15 16 16 16 16 16 16 16 17 18 18 19 19 20 20 20 20 20 20 21 23 24 24 24 24 25 26 26 27 27 27 27 27 28 28 28 28 29 29 30 29 30 30 30 30 30 31 31 31 32 32 32 32 31 31 30 30 30 30 30 30 29
18 19 19 18 18 18 18 17 18 18 18 18 18 18 18 18 18 17 17 17 17 17 17 17 17 17 17 17 17 17 17 17 18 18 18 19 19 20 20 21 21 21 21 22 22 23 24 24 25 25 26 26 27 26 27 28 28 29 29 29 28 29 30 30 30 30 30 30 31 31 31 32 32 32 33 33 33 33 32 32 31 32 31 31 30
20 20 20 20 20 20 20 19 19 19 19 19 19 19 19 19 19 19 19 19 19 19 19 19 19 18 18 18 18 19 19 18 18 18 19 19 20 20 21 21 21 21 22 22 22 23 23 24 24 24 25 25 25 26 26 27 28 29 29 30 29 29 29 30 30 30 30 30 31 31 32 32 32 32 32 32 33 33 33 32 32 32 32 32 32
21 21 21 21 21 21 21 21 21 20 20 20 20 20 21 20 20 21 21 21 21 21 21 20 20 20 20 20 20 20 20 20 19 19 19 19 20 21 21 22 22 22 22 23 23 23 23 24 24 24 24 24 24 24 25 26 27 28 29 30 30 30 30 29 30 30 31 31 31 31 32 33 33 32 32 32 32 32 32 32 32 32 33 32 32
22 22 22 23 23 23 23 23 23 22 22 22 22 22 22 22 22 22 23 22 22 22 22 22 22 22 22 22 22 22 22 21 21 21 21 21 21 21 21 22 22 22 23 23 23 23 23 24 24 23 23 23 23 23 23 24 26 27 28 28 29 29 30 29 29 30 30 31 31 31 31 32 33 33 32 32 32 32 32 32 32 32 33 32 32
24 24 24 24 24 24 24 24 24 24 24 24 24 24 24 24 24 24 24 24 23 23 23 23 23 23 23 23 24 24 24 23 23 23 23 23 22 22 22 22 22 22 23 23 23 23 23 23 23 23 23 24 24 24 23 24 24 25 26 27 27 28 29 29 29 29 30 30 31 31 31 31 32 32 32 32 32 32 32 33 33 32 32 32 32
25 26 25 25 25 25 25 25 25 26 26 26 26 26 26 26 26 26 25 25 25 25 25 25 25 25 25 25 25 25 25 25 25 25 24 24 24 24 24 24 23 23 23 23 23 22 22 22 22 23 23 24 25 25 25 24 24 24 25 25 26 27 27 28 28 28 29 29 29 30 30 31 31 32 33 33 33 33 33 33 33 33 32 32 32
26 26 26 26 26 26 26 26 27 27 27 27 27 27 27 28 28 28 27 27 27 28 28 28 28 28 28 28 27 27 27 27 27 27 26 26 26 25 25 25 24 24 24 24 24 24 23 24 24 24 24 25 26 26 26 25 25 25 25 26 26 27 27 27 26 27 27 27 27 27 28 29 30 32 33 34 35 35 35 35 34 34 34 34 34
26 26 26 27 27 27 28 28 28 28 28 28 28 28 28 28 28 29 29 29 29 29 29 30 30 30 30 30 29 29 29 29 29 29 29 28 28 28 28 27 27 27 27 27 27 27 27 27 27 27 27 26 26 27 27 27 26 27 27 27 27 27 27 26 26 26 26 27 27 27 27 28 28 29 30 32 33 34 35 36 36 36 36 36 36
26 26 27 27 28 28 28 28 28 28 28 29 29 29 29 29 29 30 30 30 31 31 31 31 31 31 31 31 31 31 31 32 32 32 32 32 32 31 31 31 31 30 30 31 31 31 31 31 31 30 30 29 28 28 27 27 28 28 29 29 28 28 28 28 28 27 27 27 27 27 28 28 28 28 29 29 30 31 33 34 35 36 36 36 36
25 26 27 27 28 28 28 28 28 28 29 29 29 30 30 30 30 31 31 31 31 32 32 32 32 32 32 33 33 33 33 34 34 34 34 34 35 35 35 35 34 34 34 34 34 34 34 34 33 33 32 31 31 31 30 29 29 29 29 30 30 29 29 29 29 29 29 29 29 29 30 30 29 29 29 29 29 29 30 32 33 34 34 34 34
26 27 27 27 27 27 27 27 27 28 28 28 29 29 30 30 30 30 31 31 31 31 32 32 32 33 33 34 34 34 35 35 35 35 36 36 36 37 37 37 37 37 38 37 37 36 36 36 35 35 34 34 34 33 33 32 32 31 31 31 30 30 30 30 30 30 29 29 29 30 31 31 31 31 30 30 30 30 30 30 30 31 32 32 33
Wind_Direction
184 183 183 181 180 179 177 177 174 175 177 177 177 176 174 174 172 172 172 169 166 164 162 159 156 154 152 149 146 142 141 139 136 136 137 138 139 140 141 142 143 141 139 138 135 134 132 132 132 131 130 128 127 127 125 123 124 123 121 118 115 113 111 110 111 109 109 111 109 104 105 110 115 118 123 126 124 122 124 124 124 122 113 105 106
185 185 184 182 182 181 179 178 175 176 179 179 178 179 178 177 177 177 175 173 171 169 166 163 162 160 157 155 152 147 145 142 138 139 139 138 140 141 143 146 147 146 144 142 141 139 137 136 136 136 135 131 129 128 127 127 126 125 123 119 116 114 111 112 113 109 107 110 111 107 104 107 116 124 128 131 129 124 125 127 124 123 114 106 107
189 187 186 184 182 182 181 180 177 176 179 180 180 181 180 179 182 182 179 176 175 174 172 168 167 165 162 160 157 151 151 147 142 140 139 138 140 141 144 148 149 150 149 147 146 145 142 142 141 141 139 135 132 130 130 129 127 127 126 124 121 116 113 115 116 109 107 112 110 106 108 109 115 126 131 133 134 130 128 128 126 125 118 110 110
194 189 188 186 183 183 183 182 178 178 181 183 184 184 182 183 185 186 184 180 179 178 177 174 171 169 166 164 162 157 155 151 146 144 142 140 140 142 145 148 149 151 153 151 151 148 146 146 144 142 142 139 134 132 133 132 130 130 129 127 124 116 113 118 117 110 110 112 108 106 108 108 111 121 126 128 132 135 133 129 127 126 121 115 116
199 192 190 189 185 184 183 182 181 180 183 185 187 187 185 186 187 188 186 183 182 182 181 179 175 172 170 168 166 163 159 155 153 151 148 146 144 144 147 149 150 152 154 154 153 150 149 149 146 144 144 142 138 136 136 135 134 132 130 128 125 119 117 119 117 115 119 116 110 109 107 107 113 119 122 122 124 133 137 132 128 127 122 120 123
202 198 195 191 187 186 184 184 183 183 185 187 189 188 187 188 189 189 187 186 186 185 184 183 180 176 173 173 171 168 166 164 162 158 153 151 149 148 149 151 153 154 155 155 153 152 152 152 149 147 146 143 141 141 139 139 138 135 132 130 128 126 125 125 123 122 124 121 117 115 111 113 117 117 121 122 119 124 131 132 132 130 123 122 126
204 205 200 193 190 189 186 186 185 185 188 189 190 190 189 190 191 190 190 188 188 188 187 186 184 180 176 175 175 175 173 169 168 164 158 155 153 151 152 153 155 155 156 156 155 155 155 154 152 150 149 146 143 143 144 143 142 138 136 135 134 134 130 129 130 125 124 123 119 114 114 121 122 120 122 124 122 121 126 133 137 135 127 123 126
205 206 203 196 192 192 189 188 188 187 188 190 191 191 191 192 192 193 192 191 190 190 190 189 187 185 180 178 180 180 178 174 171 169 163 159 157 154 154 155 156 156 158 157 155 157 157 156 155 154 152 150 147 145 145 145 144 142 142 141 140 140 136 133 130 127 125 124 118 113 116 121 122 127 129 127 127 126 126 133 138 137 132 128 130
205 206 205 199 195 194 192 191 191 189 189 191 193 192 192 193 194 194 194 193 193 192 192 192 191 189 186 183 182 183 182 179 175 172 170 166 162 160 159 157 157 158 160 158 157 159 160 159 159 158 156 154 152 150 148 149 150 147 146 146 145 144 143 140 136 133 128 125 125 121 118 116 117 128 132 128 129 128 125 129 135 135 130 130 135
205 206 207 203 198 196 195 194 194 193 191 193 195 193 193 194 195 196 196 196 195 194 194 195 194 193 191 188 185 184 184 182 178 176 175 172 167 165 164 161 159 158 160 160 160 161 162 163 163 161 161 159 156 155 154 155 156 152 151 151 149 149 150 146 143 140 134 129 131 129 123 118 118 125 127 126 129 129 126 127 131 134 129 124 129
204 205 208 209 204 199 198 197 197 197 194 194 195 193 192 195 196 197 198 198 197 196 196 197 198 196 195 193 190 187 185 184 182 179 178 176 173 169 166 164 162 162 162 162 163 163 165 167 166 165 166 164 160 158 158 158 160 159 158 156 154 154 153 151 150 149 142 134 135 136 132 126 123 126 126 128 132 130 129 132 133 139 141 135 134
205 206 207 210 208 202 200 200 201 199 196 195 195 193 193 195 197 198 198 200 200 198 198 199 200 199 199 198 196 192 189 188 186 183 181 181 178 174 171 167 166 167 166 164 165 166 166 167 166 166 166 165 164 163 162 162 165 166 164 162 159 157 155 155 156 157 150 141 141 142 138 134 131 131 134 137 142 141 138 139 139 141 147 151 149
205 207 206 207 207 204 202 201 202 201 198 197 196 194 193 195 198 199 199 201 201 200 200 201 201 200 201 201 200 196 193 193 191 188 187 186 183 179 176 173 171 172 170 168 167 167 166 166 165 166 166 165 164 164 164 162 164 168 168 167 165 163 162 161 161 164 162 151 149 149 146 146 142 139 147 151 154 155 150 148 147 143 144 151 154
206 207 206 206 206 205 203 201 202 203 201 200 198 196 195 196 199 201 201 201 202 202 202 203 203 202 202 204 203 200 197 197 195 193 192 191 189 185 182 180 178 176 174 173 170 168 169 167 166 169 169 167 166 165 165 163 164 166 168 170 171 171 171 169 169 172 172 163 159 159 158 159 156 145 149 158 162 163 157 155 157 151 147 151 159
208 208 207 208 208 207 205 203 203 204 202 201 201 198 196 196 199 202 202 202 203 203 203 204 204 203 203 204 206 203 201 200 199 197 195 195 194 192 188 185 185 182 179 179 175 172 173 172 170 173 173 170 170 170 168 167 168 165 164 168 170 172 176 176 178 179 178 174 172 171 170 175 175 153 136 151 165 165 160 157 161 165 163 163 175
209 210 209 210 210 209 209 207 206 206 203 200 200 198 197 197 199 202 203 203 204 205 205 205 206 205 204 204 206 206 204 202 202 200 199 198 197 197 194 190 188 187 184 184 182 180 180 178 175 177 177 175 175 175 173 172 172 166 164 167 167 169 175 180 182 182 181 181 183 182 178 184 189 169 140 142 156 164 172 174 171 176 178 178 187
209 210 210 211 211 210 211 210 209 209 205 202 201 200 199 199 200 202 203 204 205 206 206 207 207 206 205 205 206 207 206 204 203 202 201 200 199 199 198 195 193 191 189 189 187 186 187 185 182 182 180 178 179 179 177 175 175 171 170 171 169 169 174 180 184 185 183 184 188 189 186 189 194 188 169 158 156 163 179 185 185 187 186 185 190
208 209 210 211 210 210 211 208 208 209 207 205 205 205 204 203 203 204 204 205 206 207 208 208 208 208 207 206 206 207 207 206 205 204 203 202 202 201 200 199 197 195 194 194 192 190 189 188 187 188 185 182 183 182 180 179 178 177 177 177 176 173 174 180 185 186 186 187 189 190 191 195 202 201 194 186 181 182 190 195 199 201 198 195 194
208 207 211 214 212 212 211 208 207 209 210 209 209 210 209 208 208 208 208 208 207 208 210 210 210 210 209 207 207 208 208 207 207 206 205 204 205 204 203 202 200 198 197 198 197 195 193 190 190 191 190 187 187 186 184 184 183 183 182 181 180 178 177 180 185 187 188 190 192 193 195 201 206 208 207 203 201 205 210 209 208 209 208 207 209
213 210 212 213 210 210 209 208 207 209 211 212 212 213 211 210 211 212 212 211 209 209 210 211 210 211 210 209 208 208 208 208 208 208 208 207 206 206 205 205 203 201 200 201 201 199 197 194 194 195 194 192 192 191 191 190 189 189 189 186 185 184 183 183 185 188 188 189 195 198 201 205 207 211 214 212 209 214 222 217 210 212 214 215 219
213 212 212 210 206 205 206 207 208 209 211 212 213 213 213 212 213 213 213 213 211 211 211 211 211 211 211 210 209 209 209 208 209 210 209 208 208 208 207 207 206 204 203 204 205 204 203 201 199 199 199 196 196 197 197 197 196 196 196 193 192 191 191 190 189 192 193 193 201 206 210 215 215 218 221 219 216 217 224 222 215 216 222 225 226
206 207 209 208 205 204 204 205 208 210 212 213 214 213 213 213 214 214 214 214 213 212 211 211 211 212 212 211 210 210 210 210 209 210 211 210 209 209 209 208 208 207 206 206 206 206 208 207 204 205 204 203 201 201 202 204 203 204 203 202 202 201 200 200 199 202 203 203 209 215 219 224 225 226 228 227 225 223 224 228 227 225 229 232 232
206 205 205 207 206 203 202 204 208 211 212 213 214 215 214 214 214 214 214 214 215 214 212 211 211 211 211 211 211 211 212 211 210 210 211 212 211 211 211 210 210 210 210 210 209 209 211 211 210 210 210 210 209 208 208 209 210 211 211 212 214 212 210 210 210 212 214 213 215 220 223 225 227 231 232 232 233 230 227 233 240 239 238 240 241
210 208 207 205 202 201 200 202 207 210 212 212 213 216 216 216 215 215 215 215 216 215 212 210 210 210 211 211 211 212 212 213 212 211 212 213 214 214 214 213 213 213 214 214 214 213 214 215 215 214 214 215 215 215 214 215 216 216 216 217 220 220 219 219 219 219 221 221 223 226 227 226 228 232 234 235 237 235 231 233 241 245 245 246 245
210 207 207 205 200 197 197 200 205 209 212 214 215 216 216 215 215 217 217 217 218 217 213 211 209 210 212 212 212 212 212 213 213 213 214 215 216 216 217 217 216 216 216 217 217 217 217 218 219 219 219 218 220 221 220 221 222 221 221 221 222 225 225 225 225 226 226 226 228 231 232 231 231 233 235 236 238 240 239 237 238 242 245 247 246
210 207 208 208 205 202 199 199 204 208 211 214 217 219 217 216 217 221 223 222 222 222 219 215 214 214 215 215 214 214 214 214 214 214 215 217 218 219 219 220 219 219 219 219 220 221 221 222 222 223 223 223 223 224 225 225 225 226 226 226 225 227 230 231 231 231 230 230 232 235 236 237 236 236 237 238 240 244 246 244 241 241 244 247 247
208 208 208 208 208 207 203 201 204 208 211 214 217 219 219 218 219 223 225 225 225 224 222 219 219 219 219 218 217 216 216 217 217 216 216 217 220 222 222 222 222 222 222 222 222 223 224 225 226 227 227 227 226 227 229 229 229 230 230 231 231 231 233 235 236 237 236 236 237 238 240 241 241 241 242 243 244 247 249 249 248 247 248 249 251
205 208 208 208 210 211 208 205 205 208 212 215 216 218 218 217 217 219 221 222 223 223 223 222 222 223 223 222 220 218 216 217 219 218 219 220 222 223 223 223 223 223 225 225 224 225 227 228 229 230 230 231 231 231 232 233 234 234 233 234 235 236 236 238 239 240 241 241 241 242 243 243 244 245 246 247 247 249 251 252 253 252 252 253 255
204 207 210 209 210 212 212 210 209 210 213 214 215 217 219 218 218 220 220 219 221 223 222 223 224 223 223 222 221 220 219 220 221 220 220 222 224 225 226 225 224 223 225 227 227 227 228 230 232 233 234 234 235 236 236 236 237 238 237 238 238 239 239 240 241 243 244 244 245 246 246 247 247 248 249 250 251 251 253 255 256 256 255 256 257
204 206 210 210 210 211 212 212 213 214 217 218 218 219 220 221 222 223 223 220 220 221 220 220 220 219 217 218 218 220 222 223 222 222 222 224 226 226 227 229 227 224 224 226 227 228 229 230 232 234 236 237 238 239 239 239 239 240 241 241 241 242 242 242 244 245 246 247 248 250 251 250 250 251 252 254 255 255 256 257 257 258 258 259 259
205 206 209 211 211 212 213 214 214 216 218 221 222 222 221 222 224 225 225 223 220 218 216 216 217 215 214 216 218 220 222 222 222 222 223 225 226 226 228 231 230 227 225 225 226 228 230 232 232 233 235 237 239 241 241 241 242 242 243 244 244 244 245 245 246 247 248 249 250 251 253 253 254 254 254 255 256 257 258 259 259 260 260 261 262
207 209 212 213 213 212 214 216 215 214 215 217 220 220 220 222 224 226 228 227 222 218 217 220 222 219 218 218 220 221 222 223 224 225 225 225 226 228 230 232 232 231 229 228 228 229 232 234 235 235 236 237 239 241 242 243 243 243 244 245 246 246 246 247 248 248 249 251 251 252 253 254 255 256 256 257 257 257 258 259 260 261 261 263 263
210 211 213 216 217 216 214 215 215 213 213 216 217 216 216 219 222 224 226 227 223 221 222 224 225 224 223 223 224 224 225 226 227 227 227 227 228 230 231 232 233 233 232 232 231 232 234 236 238 238 239 239 241 242 243 243 244 244 244 245 247 248 248 249 249 250 251 252 252 253 254 255 256 257 258 259 259 260 260 260 260 261 262 264 264
212 213 214 217 219 218 216 215 216 216 216 219 219 217 217 219 220 222 224 224 224 226 226 225 225 225 226 226 227 228 231 232 231 231 230 230 230 231 232 233 234 235 236 235 235 236 237 239 240 241 241 242 243 244 245 245 246 246 246 246 247 248 249 250 251 252 253 253 254 254 255 256 257 258 259 259 260 261 261 262 262 262 262 263 264
213 214 216 218 219 219 217 216 218 219 219 221 222 222 222 223 224 224 224 223 224 227 229 229 230 229 229 229 230 231 234 235 235 234 234 233 232 233 233 234 236 237 239 240 239 240 240 241 242 243 244 245 246 248 249 249 249 249 249 249 248 248 249 250 251 253 254 255 255 256 257 257 258 259 259 260 260 261 261 262 263 263 263 264 264
213 213 215 219 222 223 220 219 221 222 222 222 223 224 225 226 226 225 225 224 224 225 227 230 233 233 234 234 233 233 235 235 235 235 235 234 234 235 236 236 238 239 241 241 242 243 243 243 244 245 246 247 248 250 251 251 252 254 255 254 253 252 251 251 252 253 254 255 256 257 257 258 258 259 259 260 260 260 260 261 262 263 264 265 265
213 215 216 218 224 226 222 221 225 226 225 224 224 225 225 227 228 227 228 229 229 229 230 232 235 237 238 239 238 237 240 240 238 238 237 235 235 237 239 240 241 242 243 243 244 245 245 246 247 247 248 249 249 250 251 252 254 256 257 258 258 257 256 255 255 254 254 255 255 256 257 257 258 259 259 259 260 260 260 260 261 262 263 264 266
217 220 221 222 227 228 224 225 229 230 229 228 228 228 227 228 230 230 232 234 235 236 238 240 241 241 241 241 241 242 243 242 241 242 242 240 240 242 244 245 244 244 244 245 245 246 247 248 248 248 249 250 251 251 252 253 255 256 257 258 258 258 258 258 258 257 256 256 255 255 256 257 258 259 260 260 261 261 261 261 261 262 262 263 264
223 226 226 226 228 228 228 230 233 235 233 232 232 232 231 231 232 232 234 237 239 241 244 247 248 246 243 243 243 243 244 243 242 243 243 242 243 245 247 249 248 247 247 245 245 247 248 249 249 249 250 252 252 253 253 253 254 256 258 258 258 258 258 259 258 258 258 257 257 256 256 256 257 258 260 261 262 262 262 262 262 262 262 262 264
226 228 228 228 230 231 232 234 236 237 236 235 235 236 238 238 237 236 237 240 242 244 247 250 251 249 248 247 246 245 246 246 246 246 244 243 243 244 246 248 249 249 249 248 248 248 249 250 251 251 252 253 254 255 255 254 254 255 257 258 258 258 259 260 259 258 258 258 257 257 257 257 258 259 260 261 262 262 262 262 262 262 262 263 265
227 228 229 230 232 234 235 236 237 237 238 237 237 239 242 243 242 242 242 243 245 247 249 250 251 251 251 251 250 249 249 249 249 249 248 247 246 246 246 247 249 249 250 250 251 251 251 252 253 253 254 255 256 257 257 255 255 255 255 257 259 259 259 260 259 259 258 258 257 257 257 257 258 259 261 262 263 263 263 263 262 262 262 263 265
228 229 232 233 234 236 237 238 239 239 240 240 240 242 243 244 244 245 246 246 248 249 250 250 251 251 252 253 253 254 253 252 251 251 250 249 249 249 248 249 250 250 250 251 252 252 252 253 254 256 257 258 258 258 258 257 256 255 254 255 258 259 260 260 260 259 259 259 258 257 257 257 259 260 261 262 263 263 263 263 263 263 263 264 264
230 232 235 236 237 238 239 239 240 241 242 243 243 244 244 244 246 248 249 250 250 250 250 250 251 252 253 254 255 255 256 255 255 255 254 253 252 251 251 251 251 252 253 253 253 254 254 255 256 257 259 260 260 260 259 259 257 256 255 255 257 259 260 261 261 260 260 261 260 259 259 258 259 261 262 263 263 263 263 262 262 263 263 264 264
234 236 238 239 239 240 240 241 243 244 245 246 246 246 246 247 248 250 251 251 251 251 250 251 252 253 254 254 255 256 256 257 257 257 257 257 256 255 254 254 253 253 254 255 255 255 256 256 257 258 258 260 261 261 261 260 259 258 257 257 257 259 261 261 261 261 261 261 261 261 261 260 260 261 262 263 263 263 263 262 262 262 263 263 264
238 239 241 241 241 241 243 244 245 247 248 249 249 250 250 251 252 252 252 252 253 253 253 253 254 254 254 255 256 256 257 257 258 258 258 259 259 258 257 257 256 255 255 256 256 256 256 257 258 258 259 261 262 263 263 263 262 260 259 258 259 260 261 262 262 262 262 262 261 261 261 262 262 261 262 262 262 262 263 263 262 262 262 262 262
241 242 243 243 243 244 245 246 248 249 250 251 251 252 252 254 254 254 254 254 254 255 256 256 256 256 256 256 256 256 256 257 257 258 258 258 258 258 258 259 258 256 255 256 257 257 257 259 259 260 261 263 264 264 264 264 264 263 261 260 260 262 262 261 261 262 263 263 262 262 262 263 263 263 262 262 262 262 263 263 263 262 262 262 262
243 244 245 245 246 247 248 249 250 251 252 252 253 253 253 254 254 255 255 256 256 257 257 258 258 258 258 258 258 257 257 257 258 258 258 258 259 259 259 260 259 258 257 257 258 259 260 262 262 263 265 266 266 265 265 265 265 264 263 262 263 263 263 262 262 262 263 262 263 263 263 265 266 266 265 264 263 263 263 262 263 263 263 262 262
244 245 246 247 248 249 250 251 251 252 253 253 253 254 254 255 255 256 256 257 257 258 258 259 259 259 259 259 259 259 259 259 259 259 259 259 259 259 259 259 259 259 259 260 260 261 262 263 264 266 268 268 267 266 266 265 264 265 265 264 264 265 264 263 263 263 263 262 263 264 264 266 268 268 268 266 265 263 263 262 262 262 262 263 263
243 245 247 248 249 250 250 251 251 252 253 254 254 255 255 256 256 257 257 258 258 259 259 259 259 259 259 259 259 259 259 259 260 259 259 259 259 259 259 259 259 258 259 260 260 261 262 264 265 266 267 267 267 266 265 264 264 265 265 265 265 265 265 263 263 263 264 265 265 265 266 266 268 269 270 269 267 266 265 264 263 262 262 263 263
244 246 247 248 249 250 250 251 252 253 254 255 255 256 256 257 257 257 258 259 259 260 260 260 260 260 260 260 260 260 260 260 260 260 260 260 260 259 260 260 259 259 259 259 259 260 261 263 264 265 264 264 264 265 266 265 265 266 265 265 264 265 265 264 264 265 266 266 267 267 267 267 268 269 269 269 269 269 268 266 264 263 262 262 263
246 247 247 247 248 249 249 251 253 254 254 255 256 256 257 257 258 258 259 260 260 261 261 261 261 261 261 261 261 261 261 261 261 261 262 262 262 261 261 261 261 261 261 260 260 260 260 261 261 262 262 262 263 264 264 265 265 265 265 265 265 264 264 264 265 265 266 266 267 268 268 268 268 269 269 269 270 270 270 268 266 264 262 262 263